When you browse on this site, cookies collect data to enhance your experience and personalize the content and advertising you see.
Visit our Privacy Policy to learn more. By continuing to use the site, you agree to this use of cookies and data.

Stündliche Wetter Bolshie Malamasy

Heute, 25 September, Freitag

Zeit Temperatur Niederschläge Wind Luftdruck Luftfeuchtigkeit
00:00 +9°C° 0 mm 3 m/S 763 mmHg 73%
01:00 +9°C° 0 mm 3 m/S 763 mmHg 75%
02:00 +9°C° 0 mm 3 m/S 763 mmHg 76%
03:00 +9°C° 0 mm 2 m/S 764 mmHg 77%
04:00 +9°C° 0 mm 2 m/S 764 mmHg 77%
05:00 +9°C° 0 mm 2 m/S 764 mmHg 77%
06:00 +9°C° 0 mm 2 m/S 764 mmHg 78%
07:00 +10°C° 0 mm 3 m/S 764 mmHg 72%
08:00 +12°C° 0 mm 3 m/S 764 mmHg 66%
09:00 +14°C° 0 mm 3 m/S 764 mmHg 61%
10:00 +16°C° 0 mm 3 m/S 764 mmHg 57%
11:00 +17°C° 0 mm 4 m/S 764 mmHg 54%
12:00 +19°C° 0 mm 4 m/S 764 mmHg 50%
13:00 +19°C° 0 mm 4 m/S 764 mmHg 51%
14:00 +19°C° 0 mm 4 m/S 764 mmHg 51%
15:00 +19°C° 0 mm 3 m/S 764 mmHg 52%
16:00 +17°C° 0 mm 3 m/S 764 mmHg 58%
17:00 +14°C° 0 mm 3 m/S 764 mmHg 65%
18:00 +13°C° 0 mm 3 m/S 764 mmHg 72%
19:00 +12°C° 0 mm 3 m/S 764 mmHg 73%
20:00 +11°C° 0 mm 3 m/S 765 mmHg 73%
21:00 +12°C° 0 mm 2 m/S 765 mmHg 73%
22:00 +12°C° 0 mm 2 m/S 765 mmHg 74%
23:00 +10°C° 0 mm 2 m/S 765 mmHg 74%

Morgen, 26 September, Samstag

Zeit Temperatur Niederschläge Wind Luftdruck Luftfeuchtigkeit
00:00 +10°C° 0 mm 2 m/S 765 mmHg 75%
01:00 +10°C° 0 mm 2 m/S 765 mmHg 75%
02:00 +10°C° 0 mm 2 m/S 765 mmHg 75%
03:00 +9°C° 0 mm 2 m/S 766 mmHg 75%
04:00 +9°C° 0 mm 2 m/S 766 mmHg 75%
05:00 +9°C° 0 mm 2 m/S 765 mmHg 75%
06:00 +9°C° 0 mm 2 m/S 765 mmHg 74%
07:00 +10°C° 0 mm 2 m/S 766 mmHg 71%
08:00 +12°C° 0 mm 2 m/S 766 mmHg 68%
09:00 +12°C° 0 mm 3 m/S 766 mmHg 64%
10:00 +14°C° 0 mm 3 m/S 766 mmHg 61%
11:00 +16°C° 0 mm 3 m/S 766 mmHg 58%
12:00 +17°C° 0 mm 3 m/S 766 mmHg 56%
13:00 +17°C° 0 mm 3 m/S 766 mmHg 55%
14:00 +17°C° 0 mm 3 m/S 766 mmHg 54%
15:00 +18°C° 0 mm 3 m/S 766 mmHg 54%
16:00 +16°C° 0 mm 3 m/S 766 mmHg 60%
17:00 +14°C° 0 mm 3 m/S 766 mmHg 66%
18:00 +13°C° 0 mm 2 m/S 766 mmHg 71%
19:00 +12°C° 0 mm 2 m/S 766 mmHg 72%
20:00 +12°C° 0 mm 2 m/S 766 mmHg 73%
21:00 +10°C° 0 mm 2 m/S 766 mmHg 73%
22:00 +10°C° 0 mm 2 m/S 767 mmHg 74%
23:00 +10°C° 0 mm 2 m/S 767 mmHg 74%

übermorgen, 27 September, Sonntag

Zeit Temperatur Niederschläge Wind Luftdruck Luftfeuchtigkeit
00:00 +9°C° 0 mm 2 m/S 767 mmHg 74%
01:00 +9°C° 0 mm 2 m/S 767 mmHg 75%
02:00 +9°C° 0 mm 2 m/S 767 mmHg 75%
03:00 +9°C° 0 mm 2 m/S 767 mmHg 75%
04:00 +9°C° 0 mm 2 m/S 767 mmHg 75%
05:00 +9°C° 0 mm 2 m/S 767 mmHg 76%
06:00 +9°C° 0 mm 2 m/S 767 mmHg 77%
07:00 +10°C° 0 mm 2 m/S 768 mmHg 72%
08:00 +12°C° 0 mm 2 m/S 768 mmHg 68%
09:00 +13°C° 0 mm 3 m/S 768 mmHg 63%
10:00 +14°C° 0 mm 3 m/S 768 mmHg 60%
11:00 +16°C° 0 mm 3 m/S 768 mmHg 56%
12:00 +17°C° 0 mm 3 m/S 768 mmHg 52%
13:00 +17°C° 0 mm 3 m/S 768 mmHg 52%
14:00 +17°C° 0 mm 3 m/S 768 mmHg 52%
15:00 +18°C° 0 mm 2 m/S 768 mmHg 53%
16:00 +16°C° 0 mm 2 m/S 768 mmHg 58%
17:00 +14°C° 0 mm 2 m/S 768 mmHg 63%
18:00 +13°C° 0 mm 2 m/S 768 mmHg 69%
19:00 +12°C° 0 mm 2 m/S 768 mmHg 70%
20:00 +10°C° 0 mm 2 m/S 768 mmHg 71%
21:00 +10°C° 0 mm 2 m/S 768 mmHg 72%
22:00 +9°C° 0 mm 2 m/S 768 mmHg 72%
23:00 +9°C° 0 mm 2 m/S 769 mmHg 72%

28 September, Montag

Zeit Temperatur Niederschläge Wind Luftdruck Luftfeuchtigkeit
00:00 +9°C° 0 mm 2 m/S 769 mmHg 72%
01:00 +9°C° 0 mm 2 m/S 769 mmHg 73%
02:00 +8°C° 0 mm 2 m/S 769 mmHg 74%
03:00 +8°C° 0 mm 2 m/S 769 mmHg 75%
04:00 +8°C° 0 mm 2 m/S 769 mmHg 75%
05:00 +8°C° 0 mm 2 m/S 769 mmHg 76%
06:00 +7°C° 0 mm 2 m/S 769 mmHg 77%
07:00 +9°C° 0 mm 2 m/S 769 mmHg 72%
08:00 +12°C° 0 mm 2 m/S 769 mmHg 66%
09:00 +14°C° 0 mm 2 m/S 769 mmHg 61%
10:00 +15°C° 0 mm 2 m/S 769 mmHg 56%
11:00 +16°C° 0 mm 3 m/S 769 mmHg 52%
12:00 +18°C° 0 mm 3 m/S 769 mmHg 48%
13:00 +18°C° 0 mm 3 m/S 769 mmHg 48%
14:00 +18°C° 0 mm 3 m/S 769 mmHg 47%
15:00 +18°C° 0 mm 3 m/S 769 mmHg 47%
16:00 +16°C° 0 mm 3 m/S 769 mmHg 53%
17:00 +15°C° 0 mm 2 m/S 769 mmHg 58%
18:00 +13°C° 0 mm 2 m/S 769 mmHg 64%
19:00 +13°C° 0 mm 2 m/S 769 mmHg 64%
20:00 +12°C° 0 mm 2 m/S 769 mmHg 64%
21:00 +10°C° 0 mm 2 m/S 769 mmHg 65%
22:00 +10°C° 0 mm 2 m/S 769 mmHg 65%
23:00 +10°C° 0 mm 2 m/S 769 mmHg 65%

29 September, Dienstag

Zeit Temperatur Niederschläge Wind Luftdruck Luftfeuchtigkeit
00:00 +10°C° 0 mm 2 m/S 769 mmHg 65%
01:00 +10°C° 0 mm 2 m/S 769 mmHg 66%
02:00 +10°C° 0 mm 2 m/S 769 mmHg 66%
03:00 +9°C° 0 mm 2 m/S 769 mmHg 66%
04:00 +9°C° 0 mm 2 m/S 769 mmHg 66%
05:00 +9°C° 0 mm 2 m/S 769 mmHg 66%
06:00 +9°C° 0 mm 2 m/S 769 mmHg 67%
07:00 +12°C° 0 mm 2 m/S 769 mmHg 64%
08:00 +13°C° 0 mm 2 m/S 769 mmHg 61%
09:00 +13°C° 0 mm 3 m/S 769 mmHg 58%
10:00 +14°C° 0 mm 3 m/S 769 mmHg 55%
11:00 +17°C° 0 mm 3 m/S 769 mmHg 51%
12:00 +18°C° 0 mm 3 m/S 769 mmHg 48%
13:00 +18°C° 0 mm 3 m/S 769 mmHg 48%
14:00 +18°C° 0 mm 3 m/S 768 mmHg 48%
15:00 +18°C° 0 mm 3 m/S 768 mmHg 48%
16:00 +17°C° 0 mm 3 m/S 768 mmHg 54%
17:00 +14°C° 0 mm 3 m/S 768 mmHg 59%
18:00 +13°C° 0 mm 2 m/S 768 mmHg 65%
19:00 +13°C° 0 mm 2 m/S 768 mmHg 67%
20:00 +12°C° 0 mm 2 m/S 768 mmHg 68%
21:00 +10°C° 0 mm 2 m/S 768 mmHg 70%
22:00 +10°C° 0 mm 2 m/S 768 mmHg 71%
23:00 +10°C° 0 mm 2 m/S 768 mmHg 72%

30 September, Mittwoch

Zeit Temperatur Niederschläge Wind Luftdruck Luftfeuchtigkeit
00:00 +9°C° 0 mm 2 m/S 768 mmHg 74%
01:00 +9°C° 0 mm 2 m/S 768 mmHg 75%
02:00 +9°C° 0 mm 2 m/S 768 mmHg 77%
03:00 +10°C° 0 mm 1 m/S 768 mmHg 79%
04:00 +9°C° 0 mm 1 m/S 768 mmHg 80%
05:00 +9°C° 0 mm 1 m/S 768 mmHg 81%
06:00 +9°C° 0 mm 1 m/S 768 mmHg 82%
07:00 +10°C° 0 mm 2 m/S 768 mmHg 77%
08:00 +12°C° 0 mm 2 m/S 767 mmHg 72%
09:00 +14°C° 0 mm 2 m/S 767 mmHg 67%
10:00 +14°C° 0 mm 3 m/S 767 mmHg 63%
11:00 +16°C° 0 mm 3 m/S 767 mmHg 59%
12:00 +18°C° 0 mm 3 m/S 767 mmHg 55%
13:00 +18°C° 0 mm 3 m/S 767 mmHg 55%
14:00 +18°C° 0 mm 3 m/S 767 mmHg 55%
15:00 +18°C° 0 mm 3 m/S 766 mmHg 55%
16:00 +16°C° 0 mm 3 m/S 766 mmHg 62%
17:00 +14°C° 0 mm 2 m/S 766 mmHg 68%
18:00 +13°C° 0 mm 2 m/S 766 mmHg 75%
19:00 +12°C° 0 mm 2 m/S 766 mmHg 77%
20:00 +10°C° 0 mm 2 m/S 766 mmHg 79%
21:00 +10°C° 0 mm 2 m/S 767 mmHg 81%
22:00 +9°C° 0 mm 2 m/S 767 mmHg 84%
23:00 +9°C° 0 mm 2 m/S 767 mmHg 86%
Mehr zeigen